sat.trackr.live / text

‹ back to catalog

COSMO-SKYMED 3

NORAD 33412 · 2008-054A

PAYLOAD ACTIVE UNKNOWN

§ Identity

Operator
Country
IT
Launch date
2008-10-25
Launch site
AFWTR
Launch vehicle
Mass (kg)
RCS (m²)
3.92

Purposes: earth_obs

External: N2YO · Heavens-Above · Gunter

§ Orbital elements

Epoch: 2026-05-25T04:01:00.273792Z

Period
95.57 min
Inclination
97.8303°
Eccentricity
0.0015573
Mean motion
15.06774629 rev/d
Perigee alt
535.3 km
Apogee alt
556.8 km
Semi-major
6,924.2 km
B*
1.8658e-4
RAAN
3.3562°
Arg perigee
350.0489°
Mean anomaly
10.0427°
Rev number
95,347

§ Raw data

COSMO-SKYMED 31 33412U 08054A   26145.16736428  .00002717  00000+0  18658-3 0  99922 33412  97.8303   3.3562 0015573 350.0489  10.0427 15.06774629953473

JSON: /api/v1/satellites/33412 · /tle

For live sub-satellite position, see the globe view (requires WebGL).

§ Visibility from observer

Set your observer location to see the next 7 days of passes ≥ 10°. The values pass through the URL so the page stays shareable.

No JS? Fill the form by hand. The geolocation button needs JavaScript.